Volver al catálogo

STARLINK-37463

ActivoComunicacionesSSO
NORAD 68854·PAYLOAD·🇺🇸 United States

Lanzado Apr 26, 2026 desde Vandenberg Space Force Base

Loading…

Próximos Pases (próximas 24 horas)

TLE

ActualizadoSource: CelesTrak SupGP

Época: Sep 14, 2026, 21:01 UTC

1 68854C 26094R   26257.87618056  .00028858  00000+0  89593-3 0  2579
2 68854  97.2838 271.1024 0001417  90.6012  37.9958 15.33420721    18

Sigue STARLINK-37463 en tiempo real con AllMySat

Download on the App Store